This is the latest recevied weather packets stored in our database for station/object N2RDT. If no packets are shown the sender has not sent any weather packets the latest 1 day(s).
| Time | Temp. | Humidity | Pressure | Rain* | Wind** | Luminosity | Snow |
|---|---|---|---|---|---|---|---|
| 1778030274 | 21.67° C | 55% | 1015 hPa | 0 mm | 1.79 m/s, 111° | 0 W/m² | - |
| 1778029970 | 21.67° C | 54% | 1015.1 hPa | 0 mm | 1.79 m/s, 113° | 0 W/m² | - |
| 1778029668 | 21.67° C | 54% | 1015.2 hPa | 0 mm | 1.34 m/s, 100° | 0 W/m² | - |
| 1778029365 | 21.67° C | 54% | 1014.9 hPa | 0 mm | 2.24 m/s, 115° | 0 W/m² | - |
| 1778029062 | 21.67° C | 54% | 1014.7 hPa | 0 mm | 1.79 m/s, 94° | 0 W/m² | - |
| 1778028759 | 21.67° C | 54% | 1014.8 hPa | 0 mm | 2.24 m/s, 97° | 0 W/m² | - |
| 1778028455 | 21.67° C | 54% | 1014.7 hPa | 0 mm | 1.79 m/s, 107° | 0 W/m² | - |
| 1778028153 | 22.22° C | 53% | 1014.7 hPa | 0 mm | 1.79 m/s, 89° | 0 W/m² | - |
| 1778027848 | 22.22° C | 53% | 1014.6 hPa | 0 mm | 1.79 m/s, 87° | 0 W/m² | - |
| 1778027545 | 21.67° C | 54% | 1014.5 hPa | 0 mm | 1.34 m/s, 96° | 0 W/m² | - |
| 1778027241 | 22.22° C | 53% | 1014.6 hPa | 0 mm | 1.79 m/s, 84° | 0 W/m² | - |
| 1778026937 | 22.22° C | 52% | 1014.5 hPa | 0 mm | 1.79 m/s, 64° | 0 W/m² | - |
| 1778026633 | 22.78° C | 51% | 1014.1 hPa | 0 mm | 2.24 m/s, 119° | 1 W/m² | - |
| 1778026331 | 22.78° C | 51% | 1014.4 hPa | 0 mm | 2.24 m/s, 67° | 2 W/m² | - |
| 1778026028 | 22.78° C | 51% | 1014.3 hPa | 0 mm | 1.34 m/s, 102° | 3 W/m² | - |
| 1778025726 | 22.78° C | 50% | 1014.2 hPa | 0 mm | 1.34 m/s, 105° | 5 W/m² | - |
| 1778025423 | 22.78° C | 50% | 1014.3 hPa | 0 mm | 0.89 m/s, 88° | 8 W/m² | - |
| 1778025120 | 23.33° C | 49% | 1014.4 hPa | 0 mm | 1.34 m/s, 89° | 12 W/m² | - |
| 1778024817 | 23.33° C | 49% | 1014.1 hPa | 0 mm | 0.89 m/s, 85° | 19 W/m² | - |
| 1778024514 | 23.89° C | 48% | 1014.2 hPa | 0 mm | 1.79 m/s, 85° | 25 W/m² | - |
| 1778024210 | 23.89° C | 47% | 1014.1 hPa | 0 mm | 1.34 m/s, 76° | 36 W/m² | - |
| 1778023908 | 23.89° C | 46% | 1014.4 hPa | 0 mm | 0.89 m/s, 94° | 51 W/m² | - |
| 1778023606 | 23.89° C | 45% | 1014.2 hPa | 0 mm | 1.79 m/s, 79° | 63 W/m² | - |
| 1778023303 | 24.44° C | 45% | 1014.3 hPa | 0 mm | 1.34 m/s, 105° | 63 W/m² | - |
| 1778022999 | 24.44° C | 45% | 1014.3 hPa | 0 mm | 2.24 m/s, 135° | 59 W/m² | - |
* Rain latest hour (hover to see other rain measurements)
** Current wind speed in m/s (hover to see current wind gust speed)